Location: Dos Palmas
(32.4468°N, 116.8732°W)
Time: 13:32:17
(UTC+00:00)

Gbstr 26 Del rocket - Pass Details

Date: 20 June 2021
Orbit: 492 x 1264 km, 51.8° (Epoch: 30 July)

Event Time Altitude Azimuth Distance (km) Brightness Sun altitude
Exits shadow 11:24:22 21° 212° (SSW) 1,402 4.3 -14.1°
Maximum altitude 11:27:20 70° 132° (SE) 729 3.4 -13.6°
Drops below altitude 10° 11:32:47 10° 49° (NE) 2,396 7.6 -12.7°
Sets 11:35:34 0° 48° (NE) 3,470 9.0 -12.3°
